Temperature
12 12 11 11 11 11 11 11 10 10 10 10 10 9 9 9 9 9 9 9 9 9 9 9 9 9 9 9 9 9 9 9 9 9 9 9 9 9 9 9 9 9 9
12 11 11 11 11 11 10 10 10 10 10 10 9 9 9 9 9 9 9 9 8 8 8 8 8 8 8 8 9 9 9 9 9 8 8 8 8 8 8 8 8 8 8
11 11 11 11 11 11 10 10 10 10 10 9 9 9 9 9 9 8 8 8 8 8 8 8 8 8 8 8 8 8 8 8 8 8 8 8 8 8 8 8 8 8 8
11 11 11 11 10 10 10 10 10 10 10 9 9 9 9 9 9 8 8 8 8 8 8 7 7 7 7 7 8 8 8 8 8 8 8 7 7 7 7 7 7 7 8
11 11 11 10 10 10 10 10 10 9 9 9 9 9 9 8 8 8 8 8 7 7 7 7 7 7 7 7 7 7 7 7 7 7 7 7 7 7 7 7 7 7 7
10 10 10 10 10 10 10 10 9 9 9 9 9 9 8 8 8 8 8 7 7 7 7 7 7 7 7 7 7 7 7 7 7 7 7 7 7 7 7 7 6 7 7
10 10 10 10 10 10 10 10 9 9 9 9 9 8 8 8 8 8 8 7 7 7 7 7 7 7 7 6 7 6 6 7 7 6 6 6 6 6 6 6 6 6 6
10 10 10 10 10 10 9 9 9 9 9 8 8 8 8 8 8 8 8 7 7 7 7 7 6 6 7 6 6 6 6 6 6 6 6 6 6 6 6 6 6 6 6
10 9 9 9 9 9 9 9 9 8 8 8 8 8 8 8 8 7 7 7 7 7 6 6 6 6 6 6 6 5 5 6 6 6 6 6 6 6 6 6 6 6 6
9 9 9 9 9 9 9 9 9 8 8 8 8 8 7 7 7 7 7 7 6 6 6 6 6 6 6 6 5 5 5 5 5 5 5 5 5 5 6 5 5 5 5
9 9 9 9 9 9 9 8 8 8 8 7 7 7 7 7 7 7 7 6 6 6 6 6 6 6 6 6 5 5 5 5 5 5 5 5 5 5 5 5 5 5 5
9 9 9 9 9 8 8 8 8 8 7 7 7 7 7 6 6 7 6 6 6 6 5 5 5 5 5 5 5 5 5 5 5 4 4 4 4 4 5 5 5 5 5
8 8 8 8 8 8 8 8 8 7 7 7 6 6 6 6 6 6 6 6 6 5 5 5 5 5 5 5 5 5 4 4 4 4 4 4 4 4 4 4 4 4 4
8 8 8 8 8 8 8 7 7 7 6 6 6 6 6 6 5 5 5 5 5 5 5 5 5 5 5 4 4 4 4 4 4 4 4 4 4 4 4 4 4 4 4
7 7 7 7 7 7 7 7 7 7 6 6 6 6 5 5 5 5 5 5 5 5 4 4 4 4 4 4 4 4 4 4 3 3 3 3 3 3 3 3 3 3 3
7 7 7 7 7 6 6 6 6 6 6 6 5 5 5 5 5 5 5 5 5 4 4 4 4 4 4 4 3 3 3 3 3 3 3 3 3 3 3 3 3 3 3
7 6 6 6 6 6 6 6 6 6 6 5 5 5 5 5 5 5 5 5 4 4 4 3 3 3 3 3 3 3 3 3 3 3 3 3 3 3 3 3 3 3 3
6 6 6 6 6 5 5 5 5 5 5 5 5 5 5 5 5 5 4 4 4 3 3 3 3 3 3 3 3 3 3 3 3 3 3 3 2 2 2 2 2 2 2
5 5 5 5 5 5 5 5 5 4 4 4 4 4 4 4 4 4 4 3 3 3 3 3 3 3 3 3 3 3 3 3 3 2 2 2 2 2 2 2 2 2 2
5 5 5 5 5 4 4 4 4 4 4 4 4 4 4 4 3 3 3 3 3 3 3 3 3 3 2 2 3 3 2 2 2 2 2 2 2 2 2 2 2 2 2
5 5 4 4 4 4 4 4 4 4 3 3 3 3 4 3 3 3 3 3 3 2 2 2 2 2 2 2 2 2 2 2 2 2 2 2 2 2 2 2 1 1 1
4 4 4 4 4 4 4 4 3 3 3 3 3 3 3 3 3 3 3 3 2 2 2 2 2 2 2 2 2 2 2 2 2 2 2 2 2 2 1 1 1 1 1
4 4 4 4 4 4 3 3 3 3 3 3 3 3 3 3 3 3 3 3 3 2 2 2 2 2 2 2 2 2 2 2 2 2 2 2 2 2 1 1 1 1 1
3 3 3 3 3 3 3 3 3 3 2 3 3 3 3 3 2 3 3 2 2 2 2 2 2 2 2 2 2 2 2 2 2 2 2 1 1 1 1 1 1 1 1
3 3 3 3 3 3 2 2 2 2 2 2 2 2 2 2 2 2 2 2 2 2 2 2 2 2 2 2 2 2 2 2 1 1 1 1 1 1 1 1 0 0 0
2 2 2 2 2 2 2 2 2 2 2 2 2 2 2 2 2 2 2 2 2 2 2 2 2 2 2 2 2 2 1 1 1 1 1 1 1 1 0 0 0 0 -0
Wind_Speed
4 4 5 5 5 4 3 3 3 3 3 3 3 2 2 1 1 1 1 1 2 2 2 2 2 2 2 2 2 2 2 3 3 3 2 2 2 2 2 2 2 2 1
4 4 5 5 5 5 4 3 3 3 3 3 3 3 2 2 2 2 2 2 2 2 2 3 3 2 3 2 2 2 2 3 3 4 3 2 3 3 2 2 2 2 2
4 4 5 5 5 5 4 4 4 4 3 4 4 4 3 3 2 2 3 3 3 3 3 3 3 3 3 2 3 3 2 2 3 3 3 2 2 2 2 2 2 2 2
4 4 5 5 4 4 4 4 4 4 4 4 4 4 4 3 3 3 3 3 3 3 3 4 4 4 4 4 3 3 3 3 3 3 3 2 2 2 2 2 2 2 2
4 4 5 4 4 4 4 4 4 4 4 4 4 4 3 3 3 3 3 4 4 4 4 4 3 3 4 4 3 4 3 3 3 3 3 2 2 1 2 2 3 2 2
5 4 4 4 4 4 4 4 4 4 4 4 4 4 4 3 1 2 4 4 4 4 4 4 3 3 3 3 4 5 5 5 4 3 3 3 3 2 2 3 3 3 3
5 4 5 5 4 4 4 4 4 4 4 4 4 4 4 3 3 3 4 5 4 4 4 4 3 3 4 4 4 5 4 5 6 6 5 5 4 3 3 4 3 4 4
5 5 5 5 5 4 4 4 4 4 4 4 4 4 4 3 3 4 4 6 5 5 5 4 4 4 3 4 4 4 4 4 5 5 5 5 4 4 4 5 5 5 4
5 5 5 5 5 5 5 4 4 4 4 5 4 4 4 4 4 4 5 4 4 5 4 4 4 4 2 5 5 5 5 4 3 3 4 4 3 3 4 3 3 3 3
4 4 5 5 5 5 5 4 4 4 5 4 4 4 5 4 4 4 5 4 4 4 4 4 3 4 3 5 6 5 5 4 4 3 4 4 4 3 4 4 3 4 4
3 3 3 4 4 4 4 4 4 4 4 5 5 4 4 4 4 4 5 4 4 4 3 3 3 2 3 5 6 4 4 5 4 4 4 3 3 3 4 4 4 4 5
3 3 3 3 3 3 4 4 4 4 4 4 4 3 3 3 2 3 3 4 4 4 4 3 2 3 4 4 4 3 4 5 3 3 4 3 3 3 3 4 4 5 5
3 3 3 3 3 3 3 3 3 4 3 3 3 3 3 2 2 2 3 3 4 4 3 3 2 2 4 4 3 3 4 4 3 3 4 4 3 4 3 3 4 4 5
3 3 3 3 3 2 2 3 3 3 3 3 3 3 3 2 2 2 2 3 3 3 2 1 1 2 3 2 3 3 3 3 3 4 4 3 3 3 3 3 3 3 4
3 3 3 3 3 3 2 2 3 2 2 3 3 3 3 3 2 2 2 2 2 2 2 2 1 2 2 2 2 2 3 3 4 4 3 3 3 3 3 3 3 3 4
3 3 3 3 3 3 2 1 0 1 1 1 2 3 3 2 1 2 2 2 1 2 3 2 2 2 2 3 3 3 3 3 3 3 4 4 4 4 3 3 3 4 5
4 3 3 3 3 3 3 3 2 1 1 2 2 2 2 1 2 2 2 2 2 3 3 2 3 3 3 3 3 3 3 3 3 3 4 4 4 4 4 3 4 4 4
4 3 3 3 3 3 3 3 3 3 2 2 2 2 2 2 2 2 2 2 2 3 3 3 3 3 3 3 3 3 3 3 3 3 3 3 4 4 4 4 4 4 5
4 3 3 3 3 3 3 3 3 3 2 2 1 1 2 2 3 3 3 3 3 3 3 3 3 3 3 3 3 3 3 3 3 3 3 4 4 4 3 4 4 5 5
3 3 3 3 3 3 3 3 3 3 2 2 2 2 2 2 2 2 3 3 4 4 4 4 4 4 4 4 3 3 4 4 4 4 4 3 4 4 4 5 4 4 5
3 3 4 4 3 4 4 4 3 3 3 3 3 2 2 3 3 4 4 4 4 4 4 4 4 4 4 4 4 4 4 4 4 4 4 4 4 4 4 5 5 5 5
3 3 3 3 3 3 3 3 3 3 3 3 3 2 4 4 3 4 4 4 4 4 5 5 5 5 4 4 4 4 5 5 4 4 4 4 5 5 5 5 5 5 5
3 3 3 2 3 3 3 3 3 3 3 3 3 2 3 3 3 4 4 4 4 5 5 5 5 5 5 5 5 5 5 5 5 5 5 5 5 5 5 5 6 6 6
3 3 3 2 2 3 3 3 3 3 3 3 3 3 3 4 4 5 4 4 4 5 5 5 6 7 7 6 6 6 6 6 6 6 6 5 5 5 5 5 6 7 6
3 3 3 3 3 3 3 3 3 3 3 3 3 3 3 4 4 4 4 4 5 5 5 6 6 7 8 8 7 7 6 7 7 6 5 5 6 6 6 6 6 6 6
3 3 3 3 3 3 3 3 3 3 3 3 3 4 4 4 4 4 4 4 4 4 5 5 6 7 8 8 8 8 7 7 7 7 6 5 5 5 5 5 6 6 6
Wind_Direction
197 195 196 195 189 190 193 195 198 196 192 199 208 215 214 215 222 238 271 291 296 304 305 305 303 314 302 292 287 277 268 266 263 271 279 291 289 292 315 309 309 315 4
197 196 199 197 189 192 194 198 200 202 203 208 210 215 214 224 238 249 264 267 276 285 287 288 287 283 279 282 282 274 270 267 265 268 266 274 283 293 295 296 318 325 324
192 192 195 199 195 197 196 198 203 205 207 210 212 216 221 227 238 249 256 260 264 272 279 280 282 274 270 267 268 270 266 264 265 259 269 285 276 290 291 299 300 316 319
190 188 189 194 195 197 198 202 206 208 211 214 216 219 223 226 232 243 248 255 263 271 277 280 280 277 277 272 265 264 261 255 255 256 260 266 271 294 292 291 297 303 310
195 193 191 192 194 194 199 206 207 209 216 216 217 221 227 230 234 242 251 258 258 260 262 265 275 292 316 303 287 276 264 256 251 249 250 257 258 272 284 283 289 294 298
203 201 194 194 193 194 201 204 202 209 219 221 221 221 228 233 203 266 271 254 262 260 260 257 253 250 251 254 280 294 295 272 262 255 253 255 260 260 275 277 290 291 296
206 200 199 198 196 201 202 204 206 212 219 223 222 225 233 223 188 224 271 264 258 261 258 253 255 257 253 249 238 235 252 278 286 269 262 262 265 264 268 267 271 278 289
206 208 202 203 202 205 207 211 217 220 220 226 226 227 235 225 200 214 250 254 256 258 258 255 252 248 253 260 253 250 253 255 263 264 265 265 273 272 263 267 269 270 271
212 217 208 205 205 206 207 215 222 224 225 227 227 227 230 220 203 217 242 251 250 254 257 257 255 249 239 261 253 251 252 248 234 260 297 294 306 298 283 269 272 266 273
217 219 211 206 205 207 209 215 223 227 229 228 229 230 232 230 201 219 242 246 247 251 254 255 263 274 234 256 253 254 255 256 250 236 239 240 244 227 240 250 259 268 277
222 216 207 203 206 208 213 219 220 223 226 229 230 235 237 237 203 213 246 253 250 251 253 253 244 244 239 250 267 265 274 275 256 253 253 252 245 242 239 251 251 257 265
211 206 201 198 198 200 206 216 216 213 217 225 228 230 234 225 215 207 235 276 283 253 254 255 241 207 225 241 257 286 279 271 259 257 256 256 255 256 255 255 259 260 266
202 203 197 192 196 197 200 205 207 207 214 220 223 226 235 235 216 205 221 250 270 266 271 294 277 196 219 224 221 238 244 249 252 255 259 265 266 265 262 262 261 263 267
197 197 193 189 191 193 199 201 203 208 214 219 225 230 231 233 234 231 229 233 238 254 263 235 184 201 228 239 220 227 249 259 260 259 260 267 273 264 258 262 265 260 263
199 194 187 185 187 191 194 207 213 218 229 232 235 236 230 233 245 286 267 238 239 253 255 237 229 229 236 239 244 251 256 254 258 265 266 263 261 262 265 264 262 265 263
198 197 194 190 193 195 193 196 55 225 178 228 270 266 253 261 209 210 246 247 214 206 225 225 233 234 237 249 256 258 260 263 266 269 264 261 259 259 262 263 258 260 266
206 200 200 197 197 203 203 204 206 201 178 205 225 251 260 224 189 200 216 210 174 178 219 233 243 247 249 250 252 256 263 269 261 259 263 263 262 257 257 259 258 262 264
213 201 205 206 201 205 208 213 214 210 213 229 219 200 211 210 199 197 200 191 194 207 232 242 251 258 260 262 264 265 268 270 263 257 260 260 261 258 258 259 258 264 268
220 211 208 211 206 205 207 211 214 218 225 232 236 196 198 208 191 184 192 219 225 233 242 247 251 255 256 259 265 266 265 264 264 261 261 263 263 261 263 266 265 267 267
228 210 214 213 206 203 205 209 212 215 223 231 236 239 207 212 223 213 221 234 238 242 246 250 253 259 259 258 260 262 263 261 261 257 258 260 262 259 259 265 267 268 267
227 207 205 214 209 205 207 210 212 214 225 234 240 235 244 235 232 230 230 236 242 244 245 249 252 254 256 258 256 257 262 266 263 260 257 257 259 261 262 261 260 261 266
228 211 208 216 216 214 213 214 215 222 227 235 240 224 220 239 245 242 238 241 246 250 251 251 255 255 253 253 255 258 259 262 263 264 260 255 256 259 259 260 261 261 262
226 212 211 218 221 211 214 218 220 227 234 237 241 240 236 245 253 256 252 249 249 251 252 251 254 258 259 259 255 252 254 257 258 256 258 257 255 257 258 257 259 260 258
217 216 217 215 217 219 222 222 225 231 237 241 246 249 251 255 261 264 266 263 259 259 257 253 252 252 256 262 262 258 257 262 265 258 252 256 258 258 257 258 260 259 258
218 218 218 220 224 228 231 232 235 239 246 252 255 258 259 262 267 270 271 272 268 262 261 260 257 254 255 256 258 262 265 263 261 262 253 250 254 257 257 257 260 263 260
221 224 225 226 227 230 234 238 241 246 250 256 261 264 267 271 273 276 276 277 278 274 269 265 263 264 265 262 263 265 262 255 252 255 252 248 249 254 256 256 260 260 262
Height
1522 1522 1523 1524 1525 1525 1526 1526 1527 1527 1527 1528 1528 1528 1528 1527 1527 1527 1526 1526 1526 1525 1525 1524 1524 1523 1523 1523 1523 1522 1522 1522 1522 1522 1521 1520 1519 1518 1517 1516 1515 1514 1513
1519 1520 1521 1521 1522 1523 1523 1524 1524 1525 1525 1526 1526 1526 1526 1526 1526 1525 1525 1524 1524 1524 1523 1522 1522 1521 1521 1521 1521 1520 1520 1520 1520 1519 1519 1518 1517 1516 1515 1514 1513 1512 1511
1516 1517 1518 1519 1519 1520 1521 1521 1522 1523 1523 1523 1524 1524 1524 1524 1523 1523 1523 1522 1522 1522 1521 1520 1520 1520 1519 1519 1518 1518 1518 1517 1517 1517 1516 1515 1514 1514 1513 1512 1512 1510 1510
1514 1514 1515 1516 1517 1517 1518 1519 1519 1520 1520 1521 1521 1521 1521 1521 1521 1521 1521 1520 1520 1519 1519 1518 1518 1518 1517 1517 1516 1516 1515 1515 1514 1514 1513 1513 1512 1511 1511 1510 1510 1509 1508
1511 1512 1513 1514 1514 1515 1515 1516 1517 1517 1518 1518 1518 1519 1519 1519 1519 1518 1518 1518 1517 1517 1516 1515 1515 1514 1513 1513 1513 1513 1513 1513 1512 1511 1511 1511 1510 1509 1509 1508 1508 1507 1506
1508 1509 1510 1511 1511 1512 1512 1513 1513 1514 1515 1515 1516 1516 1516 1516 1516 1515 1515 1515 1514 1514 1513 1512 1512 1511 1510 1510 1510 1509 1510 1510 1510 1509 1509 1508 1508 1507 1506 1506 1506 1505 1504
1505 1506 1507 1508 1508 1509 1510 1510 1511 1511 1512 1512 1513 1513 1513 1513 1512 1512 1512 1512 1511 1511 1510 1509 1508 1508 1507 1507 1507 1506 1506 1506 1506 1506 1506 1505 1505 1504 1504 1504 1503 1503 1502
1502 1503 1504 1504 1505 1506 1507 1507 1508 1508 1509 1509 1509 1509 1509 1509 1509 1509 1509 1508 1508 1507 1507 1506 1505 1505 1504 1504 1504 1503 1503 1503 1502 1502 1502 1502 1502 1501 1501 1501 1500 1500 1500
1499 1499 1500 1501 1502 1503 1503 1504 1505 1505 1506 1506 1506 1506 1506 1506 1506 1505 1505 1504 1504 1504 1503 1503 1502 1502 1501 1500 1500 1500 1500 1499 1499 1498 1498 1498 1498 1497 1498 1498 1497 1497 1496
1495 1496 1497 1498 1499 1499 1500 1501 1502 1502 1502 1503 1503 1503 1503 1502 1502 1502 1501 1501 1500 1500 1499 1499 1498 1498 1497 1497 1497 1497 1496 1496 1496 1495 1495 1495 1495 1494 1494 1494 1494 1494 1493
1492 1492 1493 1494 1495 1496 1497 1497 1498 1499 1499 1499 1499 1499 1499 1499 1498 1498 1498 1497 1497 1496 1496 1495 1495 1494 1494 1493 1493 1494 1493 1493 1492 1492 1492 1492 1492 1491 1491 1491 1491 1491 1490
1488 1489 1490 1491 1492 1493 1493 1494 1495 1495 1495 1495 1496 1496 1495 1495 1495 1494 1494 1494 1493 1493 1493 1492 1491 1491 1490 1490 1490 1490 1490 1489 1489 1489 1489 1489 1488 1488 1488 1488 1487 1487 1487
1485 1486 1487 1488 1489 1489 1490 1490 1491 1491 1492 1492 1492 1492 1492 1492 1491 1491 1491 1490 1490 1490 1490 1489 1488 1488 1487 1487 1487 1487 1487 1487 1486 1486 1486 1486 1485 1485 1484 1484 1484 1483 1483
1482 1483 1483 1484 1485 1486 1486 1487 1487 1488 1488 1488 1489 1489 1489 1489 1488 1488 1487 1487 1487 1486 1486 1485 1485 1485 1484 1484 1484 1484 1484 1484 1483 1483 1483 1482 1482 1481 1481 1480 1480 1479 1479
1479 1480 1480 1481 1482 1483 1483 1484 1484 1485 1485 1485 1486 1486 1486 1485 1485 1485 1484 1484 1483 1483 1483 1482 1482 1482 1481 1481 1481 1481 1481 1480 1480 1480 1479 1478 1478 1478 1477 1476 1476 1476 1475
1476 1477 1477 1478 1479 1479 1480 1481 1481 1482 1482 1482 1483 1483 1483 1483 1482 1482 1482 1481 1481 1480 1480 1479 1479 1479 1479 1478 1478 1478 1477 1477 1476 1476 1475 1475 1474 1474 1473 1473 1472 1472 1471
1474 1474 1474 1475 1476 1476 1477 1477 1478 1478 1479 1479 1479 1479 1479 1479 1479 1479 1479 1478 1478 1477 1477 1476 1476 1476 1476 1476 1475 1475 1474 1473 1472 1472 1472 1471 1471 1470 1470 1469 1469 1468 1468
1471 1471 1472 1472 1473 1473 1474 1474 1475 1475 1475 1475 1476 1476 1476 1476 1476 1476 1476 1475 1475 1474 1474 1473 1473 1473 1473 1473 1472 1471 1471 1470 1469 1469 1468 1467 1467 1466 1466 1465 1465 1464 1463
1468 1468 1469 1469 1470 1471 1471 1472 1472 1472 1472 1472 1472 1472 1472 1472 1473 1473 1472 1472 1471 1471 1470 1470 1470 1470 1470 1469 1469 1468 1467 1467 1466 1465 1464 1463 1463 1462 1461 1461 1460 1460 1459
1465 1465 1466 1467 1467 1468 1468 1469 1469 1470 1470 1470 1470 1469 1469 1469 1469 1469 1469 1468 1468 1468 1468 1467 1467 1467 1467 1466 1466 1465 1464 1463 1462 1461 1460 1459 1459 1458 1457 1456 1456 1455 1455
1462 1462 1463 1464 1464 1465 1465 1466 1466 1467 1467 1467 1467 1467 1466 1466 1466 1466 1466 1465 1465 1465 1465 1464 1464 1463 1463 1463 1462 1461 1461 1460 1459 1458 1457 1456 1455 1454 1453 1452 1452 1451 1450
1459 1459 1460 1461 1461 1462 1462 1463 1463 1464 1464 1464 1464 1464 1464 1463 1463 1463 1463 1462 1462 1462 1462 1461 1460 1460 1459 1459 1458 1458 1457 1456 1455 1454 1453 1452 1451 1450 1449 1448 1448 1447 1446
1456 1456 1457 1457 1458 1459 1459 1460 1460 1461 1461 1461 1461 1461 1461 1460 1460 1460 1459 1459 1458 1458 1457 1457 1456 1456 1455 1455 1454 1453 1452 1452 1451 1450 1449 1448 1447 1446 1445 1444 1443 1442 1442
1453 1453 1454 1454 1455 1455 1456 1456 1457 1458 1458 1458 1458 1458 1458 1457 1457 1456 1456 1455 1454 1454 1453 1452 1452 1451 1451 1450 1449 1449 1448 1447 1447 1445 1445 1444 1443 1442 1441 1439 1438 1438 1437
1450 1451 1451 1451 1452 1452 1453 1453 1453 1454 1454 1454 1454 1454 1454 1454 1453 1453 1452 1451 1450 1450 1449 1448 1447 1447 1446 1445 1445 1444 1443 1443 1442 1441 1440 1439 1438 1437 1436 1435 1434 1433 1432
1448 1448 1449 1449 1449 1449 1450 1450 1450 1451 1451 1451 1451 1451 1451 1450 1450 1449 1448 1447 1446 1445 1444 1444 1443 1442 1441 1440 1440 1439 1438 1437 1437 1436 1436 1435 1434 1432 1431 1430 1429 1429 1428